Hlavní strana
METAR-TAF:

METAR-TAF

Letiště :

Dublin, Georgie, Spojené státy americké

zeměpisná šířka: 32-33-52N, zeměpisná délka: 082-59-07W, výška: 94 m

Aktuální stav počasí

Zpráva byla vytvořena před 15 minutami, v 14:15 UTC
Východní vítr 3 kt
Teplota 15°C
Vlhkost vzduchu 77%
Tlak 1026 hPa
Viditelnost: 16.1 km
Polojasno ve výšce 6000 ft
Zataženo ve výšce 6500 ft

METAR: KDBN 251415Z AUTO 10003KT 10SM SCT060 OVC065 15/11 A3029 RMK AO2

Čas: 09:30 (14:30 UTC)


TAF: chybějící

Stav a předpovědi počasí z více než 4 000 letišť (zprávy METAR a TAF).

Červené a žluté tečky na mapě představují dostupné meteorologické stanice.

Když kurzor umístíte na tečku, zobrazí se název stanice.

Pak kliknutím zobrazíte stav a předpověď počasí.

Chcete-li změnit mapu, kliknutím na zelené tlačítko se znaménkem +mapu přiblížíte, kliknutím na zelené tlačítko se znaménkem – mapu oddálíte a kliknutím na zelené šipky přejdete na sousední mapy.


METAR-TAF: